Meteor 1-22 Rocket - Orbit

View from above orbital plane
View from above orbital plane
View from above satellite
View from above satellite

Ground track
Ground track

The orbit data is extracted from the following two-line orbital elements,

1 08294U 75087B   13140.46191142  .00000178  00000-0  92773-4 0  7049
2 08294 081.2191 032.9723 0105173 281.6931 182.5807 14.08409085935287
Epoch (UTC): 20 May 2013 11:05:09
Eccentricity: 0.0105173
inclination: 81.2191°
perigee height: 788 km
apogee height: 941 km
right ascension of ascending node: 32.9723°
argument of perigee: 281.6931°
revolutions per day: 14.08409085
mean anomaly at epoch: 182.5807°
orbit number at epoch: 93528

The dashed part of the orbit path shows where the satellite is in the earth's shadow,  

Developed and maintained by Chris Peat, Heavens-Above GmbH. Please read the updated FAQ before sending e-mail. Imprint. DLR